Overview Statistics Trail Chart Weather Telemetry Raw packets
 

This is the latest recevied weather packets stored in our database for station/object OK1TBM-13. If no packets are shown the sender has not sent any weather packets the latest 10 day(s).

<< 81 82 83 84 85 86 87 >>
Time Temp. Humidity Pressure Rain* Wind** Luminosity Snow
1787907602 26.11° C 45% 1013.6 hPa 0 mm - 467 W/m² -
1787907301 26.11° C 46% 1013.6 hPa 0 mm - 449 W/m² -
1787907001 26.11° C 46% 1013.6 hPa 0 mm - 442 W/m² -
1787906702 25.56° C 46% 1013.6 hPa 0 mm - 456 W/m² -
1787906101 24.44° C 48% 1013.6 hPa 0 mm - 272 W/m² -
1787905801 25° C 48% 1013.6 hPa 0 mm - 183 W/m² -
1787905501 25.56° C 47% 1013.9 hPa 0 mm - 205 W/m² -
1787905201 26.11° C 45% 1013.9 hPa 0 mm - 436 W/m² -
1787904900 26.11° C 45% 1013.9 hPa 0 mm - 598 W/m² -
1787904302 25.56° C 47% 1014.2 hPa 0 mm - 537 W/m² -
1787903702 24.44° C 51% 1014.2 hPa 0 mm - 406 W/m² -
1787903401 24.44° C 52% 1014.2 hPa 0 mm - 286 W/m² -
1787903102 23.89° C 51% 1014.2 hPa 0 mm - 290 W/m² -
1787902802 23.89° C 53% 1014.2 hPa 0 mm - 322 W/m² -
1787902502 23.89° C 52% 1014.2 hPa 0 mm - 336 W/m² -
1787902201 23.33° C 53% 1014.2 hPa 0 mm - 291 W/m² -
1787901907 23.89° C 53% 1014.2 hPa 0 mm - 272 W/m² -
1787901600 23.33° C 53% 1014.2 hPa 0 mm - 308 W/m² -
1787901300 23.33° C 54% 1014.2 hPa 0 mm - 318 W/m² -
1787901001 23.33° C 55% 1014.2 hPa 0 mm - 305 W/m² -
1787900401 22.78° C 55% 1014.2 hPa 0 mm - 252 W/m² -
1787900102 22.78° C 55% 1014.2 hPa 0 mm - 287 W/m² -
1787899802 22.78° C 55% 1014.2 hPa 0 mm - 276 W/m² -
1787899501 22.22° C 56% 1014.2 hPa 0 mm - 278 W/m² -
1787899202 22.22° C 56% 1014.2 hPa 0 mm - 262 W/m² -

* Rain latest hour (hover to see other rain measurements)
** Current wind speed in m/s (hover to see current wind gust speed)